CW1248 Weather Reports


Display with metric or nautical units.
time (UTC)temp
F
wind
direction
speed
MPH
gust
MPH
rain 1hr
in
rain 24hr
in
rain mn
in
humidity
%
barometer
mb
20260503215007 71 254 12.0 18.0 0.00 0.00 0.00 27 1005.9
20260503214534 71 289 9.0 20.0 0.00 0.00 0.00 27 1005.9
20260503214010 72 294 13.0 20.0 0.00 0.00 0.00 25 1005.9
20260503213507 72 282 7.0 19.0 0.00 0.00 0.00 28 1005.9
20260503213012 72 317 7.0 19.0 0.00 0.00 0.00 27 1006.0
20260503212504 72 267 11.0 19.0 0.00 0.00 0.00 29 1006.1
20260503212006 72 287 4.0 19.0 0.00 0.00 0.00 27 1006.0
20260503211519 72 338 6.0 19.0 0.00 0.00 0.00 28 1006.0
20260503211018 72 257 7.0 18.0 0.00 0.00 0.00 29 1006.1
20260503210507 72 254 9.0 18.0 0.00 0.00 0.00 26 1006.0
20260503210024 72 291 11.0 17.0 0.00 0.00 0.00 29 1006.1
20260503205503 72 254 7.0 14.0 0.00 0.00 0.00 27 1006.1
20260503205006 72 321 7.0 14.0 0.00 0.00 0.00 27 1006.2
20260503204524 71 234 4.0 19.0 0.00 0.00 0.00 29 1006.3
20260503204008 71 311 10.0 19.0 0.00 0.00 0.00 29 1006.4
20260503203502 71 302 7.0 22.0 0.00 0.00 0.00 27 1006.4
20260503203015 71 281 9.0 22.0 0.00 0.00 0.00 32 1006.7
20260503202506 72 289 12.0 21.0 0.00 0.00 0.00 29 1006.6
20260503202008 71 238 6.0 16.0 0.00 0.00 0.00 28 1006.4
20260503201520 71 313 6.0 17.0 0.00 0.00 0.00 30 1006.5
20260503201006 71 307 11.0 17.0 0.00 0.00 0.00 29 1006.7
20260503200509 71 287 6.0 17.0 0.00 0.00 0.00 28 1006.6
20260503200016 71 53 6.0 17.0 0.00 0.00 0.00 25 1006.8
20260503195509 71 205 8.0 20.0 0.00 0.00 0.00 30 1006.8
20260503195008 71 51 7.0 20.0 0.00 0.00 0.00 27 1006.8
20260503194526 71 280 9.0 18.0 0.00 0.00 0.00 27 1006.9
20260503194011 71 327 4.0 19.0 0.00 0.00 0.00 27 1007.1
20260503193508 71 250 9.0 19.0 0.00 0.00 0.00 33 1007.1
20260503193033 70 291 5.0 22.0 0.00 0.00 0.00 28 1007.0
20260503192505 70 300 13.0 22.0 0.00 0.00 0.00 28 1006.9
20260503192009 70 316 5.0 17.0 0.00 0.00 0.00 32 1006.8
20260503191549 69 10 9.0 23.0 0.00 0.00 0.00 28 1007.0
20260503191010 69 281 10.0 23.0 0.00 0.00 0.00 27 1007.1
20260503190505 70 312 8.0 19.0 0.00 0.00 0.00 30 1007.0
20260503190031 70 245 9.0 23.0 0.00 0.00 0.00 29 1007.0
20260503185510 70 153 12.0 23.0 0.00 0.00 0.00 30 1007.0
20260503185009 70 192 6.0 19.0 0.00 0.00 0.00 33 1007.0
20260503184524 70 286 7.0 20.0 0.00 0.00 0.00 32 1007.1
20260503184010 70 277 10.0 24.0 0.00 0.00 0.00 39 1007.3
20260503183510 69 294 13.0 24.0 0.00 0.00 0.00 32 1007.4
20260503183020 69 13 8.0 22.0 0.00 0.00 0.00 34 1007.3
20260503182505 69 324 12.0 22.0 0.00 0.00 0.00 33 1007.3
20260503182010 69 302 10.0 17.0 0.00 0.00 0.00 35 1007.2
20260503181515 69 262 10.0 19.0 0.00 0.00 0.00 36 1007.1
20260503181011 68 300 7.0 19.0 0.00 0.00 0.00 34 1007.4
20260503180507 68 281 10.0 17.0 0.00 0.00 0.00 33 1007.4
20260503180029 69 279 9.0 18.0 0.00 0.00 0.00 37 1007.4
20260503175506 69 309 10.0 20.0 0.00 0.00 0.00 34 1007.4
20260503175008 68 293 7.0 25.0 0.00 0.00 0.00 37 1007.5
20260503174526 68 245 10.0 25.0 0.00 0.00 0.00 34 1007.5
20260503174007 68 298 12.0 21.0 0.00 0.00 0.00 38 1007.6
20260503173506 68 294 11.0 21.0 0.00 0.00 0.00 34 1007.5
20260503173022 68 317 9.0 23.0 0.00 0.00 0.00 37 1007.7
20260503172507 68 305 8.0 23.0 0.00 0.00 0.00 35 1007.7
20260503172010 68 315 9.0 20.0 0.00 0.00 0.00 41 1007.6
20260503171523 68 317 8.0 21.0 0.00 0.00 0.00 36 1007.6
20260503171009 67 281 9.0 21.0 0.00 0.00 0.00 36 1007.6
20260503170510 68 268 11.0 20.0 0.00 0.00 0.00 38 1007.8
20260503151007 63 327 5.0 14.0 0.00 0.00 0.00 44 1007.3
20260503150503 63 24 5.0 13.0 0.00 0.00 0.00 45 1007.3
20260503131006 52 297 6.0 12.0 0.00 0.00 0.00 56 1006.3
20260503130504 52 295 6.0 14.0 0.00 0.00 0.00 56 1006.2
20260503110508 51 196 3.0 9.0 0.00 0.00 0.00 54 1004.8
20260503090508 54 230 3.0 11.0 0.00 0.00 0.00 48 1005.7
20260503081532 56 140 5.0 15.0 0.00 0.00 0.00 47 1005.8
20260503081008 56 221 5.0 15.0 0.00 0.00 0.00 46 1005.9
20260503080510 56 128 4.0 13.0 0.00 0.00 0.00 47 1006.0
20260503072512 57 170 4.0 15.0 0.00 0.00 0.00 48 1006.5
20260503072006 57 175 6.0 13.0 0.00 0.00 0.00 48 1006.6
20260503071521 57 214 7.0 18.0 0.00 0.00 0.00 48 1006.7
20260503071006 57 198 6.0 18.0 0.00 0.00 0.00 48 1006.8
20260503070503 57 160 5.0 14.0 0.00 0.00 0.00 49 1006.9
20260503055003 58 284 12.0 26.0 0.00 0.00 0.00 50 1008.4
20260503054512 57 288 12.0 22.0 0.00 0.00 0.00 49 1008.5
20260503054008 56 229 10.0 16.0 0.00 0.00 0.00 50 1008.6
20260503053504 55 250 8.0 13.0 0.00 0.00 0.00 50 1008.8
20260503053008 55 234 5.0 10.0 0.00 0.00 0.00 52 1008.6
20260503052505 55 240 3.0 8.0 0.00 0.00 0.00 52 1008.5
20260503052010 55 279 2.0 8.0 0.00 0.00 0.00 52 1008.5
20260503051503 55 200 3.0 10.0 0.00 0.00 0.00 52 1008.6
20260503051003 55 218 3.0 10.0 0.00 0.00 0.00 51 1008.6
20260503050503 55 232 3.0 7.0 0.00 0.00 0.00 50 1008.5
20260503050009 55 221 4.0 7.0 0.00 0.00 0.00 50 1008.5
20260503045505 56 195 3.0 8.0 0.00 0.00 0.00 49 1008.5
20260503045005 56 178 3.0 8.0 0.00 0.00 0.00 49 1008.5
20260503044515 56 203 4.0 8.0 0.00 0.00 0.00 48 1008.5
20260503044004 56 182 4.0 8.0 0.00 0.00 0.00 48 1008.6
20260503043505 56 259 4.0 10.0 0.00 0.00 0.00 48 1008.7
20260503043020 56 153 5.0 10.0 0.00 0.00 0.00 47 1008.8
20260503042508 56 209 3.0 6.0 0.00 0.00 0.00 47 1008.9
20260503042004 56 195 2.0 8.0 0.00 0.00 0.00 46 1008.9
20260503041510 57 210 2.0 11.0 0.00 0.00 0.00 46 1008.9
20260503041003 57 213 3.0 12.0 0.00 0.00 0.00 46 1009.0
20260503040507 57 203 6.0 12.0 0.00 0.00 0.00 46 1009.1
20260503040014 57 200 3.0 7.0 0.00 0.00 0.00 46 1009.2
20260503035505 57 232 3.0 8.0 0.00 0.00 0.00 45 1009.3
20260503035006 58 148 2.0 8.0 0.00 0.00 0.00 45 1009.4
20260503034506 58 219 2.0 7.0 0.00 0.00 0.00 44 1009.5
20260503034007 58 178 1.0 8.0 0.00 0.00 0.00 44 1009.6
20260503033506 58 205 3.0 8.0 0.00 0.00 0.00 43 1009.6
20260503033004 59 190 3.0 8.0 0.00 0.00 0.00 42 1009.7
20260503032506 59 184 3.0 9.0 0.00 0.00 0.00 42 1009.8
20260503032003 59 161 4.0 9.0 0.00 0.00 0.00 42 1009.9
20260503031511 60 155 3.0 9.0 0.00 0.00 0.00 41 1010.0
20260503031003 60 139 3.0 9.0 0.00 0.00 0.00 41 1010.1
20260503030503 60 173 4.0 9.0 0.00 0.00 0.00 40 1010.2
20260503030014 60 187 5.0 9.0 0.00 0.00 0.00 41 1010.2
20260503025507 60 218 4.0 11.0 0.00 0.00 0.00 41 1010.3
20260503025003 60 225 3.0 15.0 0.00 0.00 0.00 40 1010.4
20260503024520 60 178 6.0 17.0 0.00 0.00 0.00 39 1010.6
20260503024006 60 236 8.0 17.0 0.00 0.00 0.00 40 1010.8
20260503023503 60 214 5.0 15.0 0.00 0.00 0.00 40 1011.0
20260503023013 60 246 6.0 10.0 0.00 0.00 0.00 39 1011.0
20260503022507 60 269 4.0 12.0 0.00 0.00 0.00 39 1011.0
20260503022003 60 280 5.0 12.0 0.00 0.00 0.00 39 1011.1
20260503021508 60 281 7.0 12.0 0.00 0.00 0.00 40 1011.2
20260503021003 61 259 3.0 8.0 0.00 0.00 0.00 41 1011.2
20260503020508 61 247 2.0 7.0 0.00 0.00 0.00 41 1011.2
20260503020009 61 226 2.0 9.0 0.00 0.00 0.00 39 1011.2
20260503015504 61 250 4.0 9.0 0.00 0.00 0.00 38 1011.2
20260503015005 61 219 4.0 13.0 0.00 0.00 0.00 38 1011.1
20260503014524 62 287 5.0 19.0 0.00 0.00 0.00 37 1011.1
20260503014004 62 250 10.0 27.0 0.00 0.00 0.00 37 1011.3
20260503013506 62 217 12.0 28.0 0.00 0.00 0.00 37 1011.7
20260503013035 62 225 14.0 28.0 0.00 0.00 0.00 37 1011.6
20260503012502 62 295 10.0 28.0 0.00 0.00 0.00 36 1011.5
20260503012004 62 287 15.0 28.0 0.00 0.00 0.00 36 1011.6
20260503011510 62 250 10.0 18.0 0.00 0.00 0.00 35 1011.6
20260503011004 62 254 8.0 14.0 0.00 0.00 0.00 36 1011.4
20260503010505 62 273 5.0 11.0 0.00 0.00 0.00 36 1011.3
20260503010018 62 270 4.0 15.0 0.00 0.00 0.00 35 1011.3
20260503005508 62 271 4.0 18.0 0.00 0.00 0.00 35 1011.3
20260503005007 62 281 9.0 24.0 0.00 0.00 0.00 35 1011.4
20260503004504 62 273 12.0 24.0 0.00 0.00 0.00 35 1011.6
20260503004003 62 302 6.0 15.0 0.00 0.00 0.00 36 1011.5
20260503003502 62 238 4.0 12.0 0.00 0.00 0.00 36 1011.5
20260503003008 62 287 7.0 12.0 0.00 0.00 0.00 36 1011.5
20260503002503 62 259 5.0 16.0 0.00 0.00 0.00 36 1011.6
20260503002003 63 248 6.0 20.0 0.00 0.00 0.00 36 1011.5
20260503001508 63 239 13.0 20.0 0.00 0.00 0.00 36 1011.6
20260503001003 63 250 10.0 20.0 0.00 0.00 0.00 35 1011.7
20260503000502 63 225 5.0 22.0 0.00 0.00 0.00 35 1011.5
20260503000006 63 263 15.0 22.0 0.00 0.00 0.00 36 1011.7
20260502235502 63 273 6.0 13.0 0.00 0.00 0.00 34 1011.5
20260502235002 63 309 7.0 21.0 0.00 0.00 0.00 34 1011.6
20260502234504 63 246 10.0 21.0 0.00 0.00 0.00 33 1011.6
20260502234004 64 289 9.0 21.0 0.00 0.00 0.00 33 1011.4
20260502233504 64 277 9.0 21.0 0.00 0.00 0.00 33 1011.6
20260502233017 64 252 10.0 20.0 0.00 0.00 0.00 35 1011.7
20260502232503 64 257 6.0 11.0 0.00 0.00 0.00 35 1011.6
20260502232003 64 286 4.0 12.0 0.00 0.00 0.00 34 1011.5
20260502231508 64 221 7.0 12.0 0.00 0.00 0.00 35 1011.6
20260502231003 64 218 6.0 12.0 0.00 0.00 0.00 35 1011.6
20260502230504 64 300 3.0 14.0 0.00 0.00 0.00 34 1011.7
20260502230010 64 195 8.0 14.0 0.00 0.00 0.00 33 1011.7
20260502225502 64 325 6.0 13.0 0.00 0.00 0.00 34 1011.7
20260502225003 64 254 7.0 15.0 0.00 0.00 0.00 33 1011.7
20260502224504 65 261 8.0 16.0 0.00 0.00 0.00 32 1011.8
20260502224008 65 267 8.0 18.0 0.00 0.00 0.00 32 1011.8
20260502223503 65 252 11.0 18.0 0.00 0.00 0.00 32 1011.9
20260502223012 65 200 3.0 23.0 0.00 0.00 0.00 31 1012.0
20260502222504 65 248 10.0 23.0 0.00 0.00 0.00 33 1012.1
20260502222005 65 213 9.0 18.0 0.00 0.00 0.00 31 1012.0
20260502221509 65 230 10.0 18.0 0.00 0.00 0.00 32 1012.1
20260502221005 65 275 11.0 19.0 0.00 0.00 0.00 31 1012.3
20260502220503 66 271 12.0 19.0 0.00 0.00 0.00 31 1012.3
20260502220015 66 248 13.0 19.0 0.00 0.00 0.00 32 1012.5
20260502215506 66 240 9.0 20.0 0.00 0.00 0.00 31 1012.4